{"data":{"norad_id":59598,"intl_designator":"2024-079A","name":"GSAT0225 (GALILEO 29)","alt_names":[],"object_type":"PAYLOAD","status":"ACTIVE","operator":null,"country":"ESA","launch_date":"2024-04-28","launch_site_code":"AFETR","launch_vehicle":null,"mission":null,"orbit_class":"UNKNOWN","rcs_meters":null,"size_class":null,"mass_kg":null,"dimensions":null,"purposes":["earth_obs","nav"],"wikipedia_slug":null,"has_3d_model":false,"image_url":null,"decayed_at":null,"tle_current":{"epoch":"2026-05-22T07:12:38.722752Z","epoch_age_seconds":305393,"freshness":"STALE","line1":"1 59598U 24079A   26142.30044818  .00000020  00000+0  00000+0 0  9991","line2":"2 59598  55.1041 101.8024 0002201 291.9380 246.4363  1.70474068 12870","mean_motion":1.70474068,"eccentricity":0.0002201,"inclination_deg":55.1041,"raan_deg":101.8024,"arg_perigee_deg":291.938,"mean_anomaly_deg":246.4363,"bstar":0,"rev_number":1287,"period_min":844.70325422163,"perigee_km":23215.660157384,"apogee_km":23228.690214809,"semimajor_km":29600.312186096,"source":"CELESTRAK","updated_at":"2026-05-25T13:38:24.061781Z"}}}